{"data":{"norad_id":63221,"epoch":"2026-05-25T03:02:23.421408Z","epoch_age_seconds":57924,"freshness":"FRESH","line1":"1 63221U 25052M   26145.12665997  .00003297  00000+0  14858-3 0  9990","line2":"2 63221  97.3918  37.6854 0002519 191.0891 169.0290 15.21734207 66339","mean_motion":15.21734207,"eccentricity":0.0002519,"inclination_deg":97.3918,"raan_deg":37.6854,"arg_perigee_deg":191.0891,"mean_anomaly_deg":169.029,"bstar":0.00014858,"rev_number":6633,"period_min":94.628877590842,"perigee_km":498.87675963247,"apogee_km":502.34227212717,"semimajor_km":6878.7465158798,"source":"CELESTRAK","updated_at":"2026-05-25T13:38:03.577893Z"}}